This demonstration page uses our WeatherBlox Daily Observations layout. Learn more.

Left ArrowRight Arrow

41.86663, -103.66717

Hourly Observations for August 19, 2021

Temp ( °F °C ) Dew Point ( °F °C ) Humidity (%) Winds ( mph kmh ) Pressure ( in mb ) Visibility ( mi km ) Precip ( " mm )
12:53 am 00:53 Clear 73 22.8 58 14.4 59 59 ESE 12 19 29.73 1007 10 16 N/A
1:53 am 01:53 Cloudy 73 22.8 59 15 62 62 ESE 17 28 29.78 1008 10 16 N/A
2:53 am 02:53 Mostly Cloudy 70 21.1 60 15.6 71 71 E 13 20 29.77 1008 10 16 N/A
3:53 am 03:53 Cloudy 70 21.1 60 15.6 71 71 ESE 16 26 29.77 1008 10 16 N/A
4:53 am 04:53 Cloudy 69 20.6 61 16.1 76 76 ESE 14 22 29.76 1008 10 16 N/A
5:53 am 05:53 Cloudy 69 20.6 61 16.1 76 76 ESE 10 17 29.78 1008 10 16 N/A
6:13 am 06:13 Cloudy 69 20.6 61 16.1 76 76 ESE 13 20 29.74 1007 10 16 N/A
6:53 am 06:53 Cloudy 69 20.6 62 16.7 78 78 ESE 9 15 29.79 1009 10 16 N/A
7:53 am 07:53 Cloudy 69 20.6 62 16.7 78 78 SSE 8 13 29.79 1009 8 13 N/A
8:53 am 08:53 Cloudy 64 17.8 58 14.4 81 81 NW 7 11 29.82 1010 8 13 0.00 0.00
9:53 am 09:53 Cloudy with Haze 65 18.3 57 13.9 76 76 WNW 8 13 29.83 1010 6 10 N/A
10:53 am 10:53 Cloudy with Light Rain 63 17.2 59 15 87 87 WNW 8 13 29.84 1011 4 6 0.01 0.25
11:00 am 11:00 Cloudy with Light Rain 63 17 59 15 88 88 WNW 9 15 29.82 1010 6 10 N/A
11:53 am 11:53 Cloudy 66 18.9 60 15.6 81 81 NNW 7 11 29.84 1011 8 13 0.00 0.00
12:43 pm 12:43 Cloudy 70 21.1 60 15.6 71 71 WNW 10 17 29.77 1008 10 16 N/A
12:53 pm 12:53 Cloudy 70 21.1 60 15.6 71 71 NW 8 13 29.83 1010 10 16 N/A
1:14 pm 13:14 Cloudy 71 21.7 60 15.6 68 68 NNW 6 9 29.75 1007 10 16 N/A
1:53 pm 13:53 Sunny 75 23.9 61 16.1 62 62 VRB 5 7 29.80 1009 10 16 N/A
2:53 pm 14:53 Sunny 79 26.1 61 16.1 54 54 NNW 10 17 29.75 1007 10 16 N/A
3:53 pm 15:53 Sunny 80 26.7 60 15.6 51 51 NW 7 11 29.74 1007 10 16 N/A
4:53 pm 16:53 Partly Cloudy 79 26.1 57 13.9 47 47 WNW 6 9 29.74 1007 10 16 N/A
5:53 pm 17:53 Mostly Cloudy 77 25 61 16.1 58 58 ENE 12 19 29.73 1007 10 16 N/A
6:53 pm 18:53 Mostly Cloudy 74 23.3 60 15.6 62 62 E 13 20 29.75 1007 10 16 N/A
7:53 pm 19:53 Partly Cloudy 71 21.7 58 14.4 63 63 E 10 17 29.74 1007 10 16 N/A
8:53 pm 20:53 Mostly Clear 69 20.6 60 15.6 73 73 ESE 9 15 29.76 1008 10 16 N/A
9:24 pm 21:24 Cloudy 66 18.9 53 11.7 63 63 WNW 23 37 29.77 1008 10 16 N/A
9:31 pm 21:31 Cloudy 65 18.3 54 12.2 68 68 WNW 22 35 29.78 1008 10 16 N/A
9:53 pm 21:53 Cloudy 65 18.3 56 13.3 73 73 NNW 14 22 29.83 1010 10 16 N/A
10:53 pm 22:53 Mostly Cloudy 66 18.9 57 13.9 73 73 N 10 17 29.78 1009 10 16 N/A
11:53 pm 23:53 Cloudy 65 18.3 57 13.9 76 76 N N/A 29.79 1009 10 16 N/A

Powered by AerisWeather